[Iaude] MPEC X57: 2023 XV [a=1.27,e=0.22,i=10.1,H=24.2]

mpec at marsden.cfa.harvard.edu mpec at marsden.cfa.harvard.edu
Tue Dec 5 03:18:03 EST 2023


M.P.E.C. 2023-X57                              Issued 2023 December 5, 08:16 UT

     The Minor Planet Electronic Circulars contain information on unusual
         minor planets, routine data on comets and natural satellites,
         and occasional editorial announcements.  They are published
    on behalf of Division F of the International Astronomical Union by the
          Minor Planet Center, Smithsonian Astrophysical Observatory,
                          Cambridge, MA 02138, U.S.A.
			  
             Prepared using the Tamkin Foundation Computer Network

                              MPC at CFA.HARVARD.EDU
            URL https://www.minorplanetcenter.net/    ISSN 1523-6714

                                    2023 XV                                     


Observations:
     K23X00V*1C2023 12 03.21776303 16 11.528+32 42 49.86         20.36GVEX057G96
     K23X00V 1C2023 12 03.22334103 16 12.400+32 42 15.88         20.78GVEX057G96
     K23X00V 1C2023 12 03.22892203 16 13.296+32 41 41.71               VEX057G96
     K23X00V 1C2023 12 03.23449303 16 14.142+32 41 08.74         20.82GVEX057G96
     K23X00V KC2023 12 03.33279803 16 29.863+32 31 09.77         20.60GVEX057I52
     K23X00V KC2023 12 03.33407703 16 30.097+32 31 01.67         20.11GVEX057I52
     K23X00V KC2023 12 03.33535203 16 30.266+32 30 53.78         20.15GVEX057I52
     K23X00V KC2023 12 03.33663403 16 30.497+32 30 45.50         20.91GVEX057I52
     K23X00V KC2023 12 04.12073403 19 00.376+31 13 13.22         20.71GVEX057I52
     K23X00V KC2023 12 04.12181003 19 00.548+31 13 07.32         20.27GVEX057I52
     K23X00V KC2023 12 04.12290603 19 00.707+31 13 01.16         19.91GVEX057I52
     K23X00V KC2023 12 04.12398203 19 00.818+31 12 55.44         20.47GVEX057I52
     K23X00V  C2023 12 05.30316803 22 18.467+29 21 35.30         20.4 GVEX057H01
     K23X00V  C2023 12 05.30657903 22 18.946+29 21 16.23         20.7 GVEX057H01
     K23X00V  C2023 12 05.31961303 22 20.781+29 20 03.30         20.7 GVEX057H01
     K23X00V  C2023 12 05.33306203 22 22.697+29 18 47.96         20.6 GVEX057H01

Observer details:
G96 Mt. Lemmon Survey.  Observer H. Groeller.  Measurers E. C. Beshore, D.
    Fay, J. B. Fazekas, D. C. Fuls, A. R. Gibbs, A. D. Grauer, H. Groeller, J.
    K. Hogan, R. A. Kowalski, S. M. Larson, G. J. Leonard, D. Rankin, R. L.
    Seaman, F. C. Shelly, K. W. Wierzchos.  1.5-m reflector + 10K CCD.
H01 Magdalena Ridge Observatory, Socorro.  Observers W. H. Ryan, E. V. Ryan.
    Measurer W. H. Ryan.  2.4-m f/8.9 Ritchey-Chretien + CCD.
I52 Steward Observatory, Mt. Lemmon Station.  Observers R. A. Kowalski, G. J.
    Leonard.  Measurers E. C. Beshore, D. Fay, J. B. Fazekas, D. C. Fuls, A.
    R. Gibbs, A. D. Grauer, H. Groeller, J. K. Hogan, R. A. Kowalski, S. M.
    Larson, G. J. Leonard, D. Rankin, R. L. Seaman, F. C. Shelly, K. W.
    Wierzchos.  1.0-m prime focus + CCD.

Orbital elements:
2023 XV                                                  Earth MOID = 0.0956 AU
Epoch 2023 Sept. 13.0 TT = JDT 2460200.5                MPC                     
M 346.73307              (2000.0)            P               Q                  
n   0.69271686     Peri.  107.46748     +0.98193737     -0.07992034             
a   1.2650243      Node   257.37860     +0.01380077     +0.93424942             
e   0.2192354      Incl.   10.12204     +0.18870226     +0.34754965             
P   1.42           H   24.21          G   0.15           U   8                  
Residuals in seconds of arc
231203 G96  0.1+  0.2+    231203 I52  0.2-  0.0     231205 H01  0.0   0.0
231203 G96  0.1-  0.1-    231203 I52  0.1+  0.4-    231205 H01  0.0   0.0
231203 G96  0.0   0.6-    231204 I52  0.2+  0.3-    231205 H01  0.0   0.0
231203 G96  0.5-  0.1+    231204 I52  0.3+  0.1-    231205 H01  0.0   0.0
231203 I52  0.1-  0.3+    231204 I52  0.1+  0.0
231203 I52  0.3+  0.1+    231204 I52  0.6-  0.4+

Ephemeris:
2023 XV                  a,e,i = 1.27, 0.22, 10                  q = 0.9877
Date    TT    R. A. (2000) Decl.     Delta      r    Elong.  Phase     V
2023 11 05    20 33 25.9 +71 55 34   0.1089  1.0240   104.3    69.8    21.9
...
2023 11 20    01 57 05.9 +59 20 58   0.09643 1.0599   136.1    40.3    20.8
...
2023 11 28    02 55 52.6 +42 25 53   0.1061  1.0825   153.3    24.2    20.6
...
2023 12 04    03 18 35.2 +31 25 14   0.1216  1.1007   159.9    17.9    20.8
2023 12 05    03 21 29.5 +29 49 51   0.1247  1.1038   160.2    17.6    20.8
2023 12 06    03 24 13.1 +28 18 52   0.1281  1.1069   160.3    17.4    20.9
...
2023 12 12    03 37 48.5 +20 41 53   0.1513  1.1262   157.7    19.4    21.3
...
2023 12 20    03 51 42.7 +13 53 52   0.1893  1.1527   150.7    24.7    22.0
...
2024 01 04    04 13 35.9 +07 42 51   0.2764  1.2039   138.3    32.9    23.2

A. U. Tomatic                (C) Copyright 2023 MPC           M.P.E.C. 2023-X57





More information about the Iaude mailing list